User: anonymous   Login
Location: Unspecified
(0.0000°N, 0.0000°E)
Time: 17:01:21
(UTC+01:00)
Language:

JASON 2 - Orbit

View from above orbital plane
View from above orbital plane
View from above satellite
View from above satellite

Ground track
Ground track

The orbit data is extracted from the following two-line orbital elements,

1 33105U 08032A   19079.48661580 -.00000060  00000-0  92268-5 0  9998
2 33105  66.0404 213.7894 0007827 273.5156 171.7973 12.87630220503151
Epoch (UTC): 20 March 2019 11:40:43
Eccentricity: 0.0007827
inclination: 66.0404°
perigee height: 1305 km
apogee height: 1317 km
right ascension of ascending node: 213.7894°
argument of perigee: 273.5156°
revolutions per day: 12.87630220
mean anomaly at epoch: 171.7973°
orbit number at epoch: 50315

The dashed part of the orbit path shows where the satellite is in the earth's shadow,  

DLR